Location: Antichan
(42.9728°N, 0.6667°E)
Time: 18:09:39
(UTC+00:00)

Cosmos 2333 Rocket - Pass Details

Date: 15 August 2020
Orbit: 837 x 864 km, 70.8° (Epoch: 17 September)

Event Time Altitude Azimuth Distance (km) Brightness Sun altitude
Rises 22:50:10 0° 333° (NNW) 3,452 6.5 -31.0°
Reaches altitude 10° 22:52:39 10° 331° (NNW) 2,510 5.5 -31.2°
Enters shadow 22:57:21 57° 304° (WNW) 1,010 2.7 -31.5°
